sat.trackr.live / text

‹ back to catalog

STARLINK-30341

NORAD 57714 · 2023-129S

PAYLOAD ACTIVE UNKNOWN

§ Identity

Operator
Country
US
Launch date
2023-08-27
Launch site
AFETR
Launch vehicle
Mass (kg)
RCS (m²)

Purposes: comms

External: N2YO · Heavens-Above · Gunter

§ Orbital elements

Epoch: 2026-09-19T07:11:39.963840Z

Period
94.27 min
Inclination
43.0041°
Eccentricity
0.0001228
Mean motion
15.27581333 rev/d
Perigee alt
482.2 km
Apogee alt
483.9 km
Semi-major
6,861.2 km
B*
4.5571e-5
RAAN
107.8154°
Arg perigee
274.6484°
Mean anomaly
85.4228°
Rev number
17,025

§ Raw data

STARLINK-303411 57714U 23129S   26262.29976810  .00000992  00000+0  45571-4 0  99962 57714  43.0041 107.8154 0001228 274.6484  85.4228 15.27581333170254

JSON: /api/v1/satellites/57714 · /tle

For live sub-satellite position, see the globe view (requires WebGL).

§ Visibility from observer

Set your observer location to see the next 7 days of passes ≥ 10°. The values pass through the URL so the page stays shareable.

No JS? Fill the form by hand. The geolocation button needs JavaScript.